Location: Treviso
(45.6669°N, 12.2430°E)
Time: 05:58:00
(UTC+02:00)

ISS - Pass Details

Date: 22 October 2021
Orbit: 417 x 423 km, 51.6° (Epoch: 17 October)

Event Time Altitude Azimuth Distance (km) Brightness Sun altitude
Rises 06:59:05 0° 225° (SW) 2,357 -0.3 -7.3°
Reaches altitude 10° 07:01:13 10° 219° (SW) 1,496 -1.2 -7.0°
Maximum altitude 07:04:27 47° 144° (SE) 565 -2.7 -6.4°
Drops below altitude 10° 07:07:42 10° 70° (ENE) 1,501 0.1 -5.8°
Sets 07:09:51 0° 64° (ENE) 2,367 1.1 -5.5°
